User: anonymous
Location: Unspecified
(0.0000°N, 0.0000°E)
Time: 04:01:28
(UTC+02:00)
Language:

Iridium 15 - Orbit

View from above orbital plane
View from above orbital plane
View from above satellite
View from above satellite

Ground track
Ground track

The orbit data is extracted from the following two-line orbital elements,

1 24869U 97034A   14110.49545693  .00000347  00000-0  11688-3 0  8758
2 24869 086.3959 144.0753 0002384 106.8806 030.6244 14.34220735878554
Epoch (UTC): 20 April 2014 11:53:27
Eccentricity: 0.0002384
inclination: 86.3959°
perigee height: 776 km
apogee height: 779 km
right ascension of ascending node: 144.0753°
argument of perigee: 106.8806°
revolutions per day: 14.34220735
mean anomaly at epoch: 30.6244°
orbit number at epoch: 87855

The dashed part of the orbit path shows where the satellite is in the earth's shadow,  

DLR